Location: Caltech
(34.1382°N, 118.1253°W)
Time: 06:58:13
(UTC-07:00)

FENGYUN 3A - Visible Passes

Search period start: 28 March 2017 00:00
Search period end: 07 April 2017 00:00
Orbit: 819 x 834 km, 98.4° (Epoch: 26 March)

Date Brightness Start Highest point End Pass type
(mag) Time Alt. Az. Time Alt. Az. Time Alt. Az.
28 Mar 5.1 20:39:55 10° SSW 20:44:52 37° W 20:49:51 10° NNW visible
29 Mar 4.3 20:20:38 10° S 20:25:55 57° W 20:31:15 10° NNW visible
30 Mar 3.7 20:01:37 10° SSE 20:07:01 87° WSW 20:12:27 10° NNW visible
31 Mar 3.7 19:42:51 10° SSE 19:48:10 62° ENE 19:53:29 10° N visible
31 Mar 6.4 21:26:11 10° WSW 21:28:44 13° W 21:31:19 10° WNW visible
01 Apr 6.0 21:05:41 10° SW 21:09:40 21° W 21:13:42 10° NW visible
02 Apr 5.4 20:45:54 10° SSW 20:50:40 32° W 20:55:28 10° NW visible
03 Apr 4.6 20:26:30 10° S 20:31:42 49° W 20:36:55 10° NNW visible
04 Apr 3.9 20:07:24 10° S 20:12:47 76° WSW 20:18:11 10° NNW visible
05 Apr 3.6 19:48:33 10° SSE 19:53:55 71° ENE 19:59:16 10° N visible
05 Apr 6.6 21:32:58 10° WSW 21:34:35 11° W 21:36:11 10° WNW visible
06 Apr 6.2 21:11:53 10° SW 21:15:30 18° W 21:19:07 10° NW visible
